Regional Weather Roundup
Issued by NWS Mobile, AL

Home | Current Version | Previous Version | Text Only | Print | Product List | Glossary On
Versions: 1 2 3 4 5 6 7 8 9 10 11 12 13 14 15 16 17 18 19 20 21 22 23 24 25 26 27
000
ASUS44 KMOB 261212
RWRMOB
REGIONAL WEATHER ROUNDUP
NATIONAL WEATHER SERVICE MOBILE AL
700 AM CDT WED APR 26 2017

NOTE: "FAIR" INDICATES FEW OR NO CLOUDS BELOW 12,000 FEET WITH NO
      SIGNIFICANT WEATHER AND/OR OBSTRUCTIONS TO VISIBILITY.

  * THESE STATIONS ARE PART OF THE UNIVERSITY OF SOUTH ALABAMA
    MESONET AND ARE NOT UNDER NWS OR FAA QUALITY CONTROL.

ALZ061>064-261300-
COASTAL ALABAMA

CITY           SKY/WX    TMP DP  RH WIND       PRES   REMARKS
MOBILE REG APT PTCLDY    62  58  86 SE8       29.76R
6HR MIN TEMP:  59; 6HR MAX TEMP:  62;

BROOKLEY FIELD PTCLDY    70  61  73 S6        29.78R
6HR MIN TEMP:  67; 6HR MAX TEMP:  71;

USA CAMPUS*    NOT AVBL
DOG RIVER*     NOT AVBL


CITY           SKY/WX    TMP DP  RH WIND       PRES   REMARKS
GULF SHORES    PTCLDY    69  60  74 SE10      29.77R

$$

ALZ051>060-261300-
INTERIOR SOUTHWEST AND SOUTH CENTRAL ALABAMA

CITY           SKY/WX    TMP DP  RH WIND       PRES   REMARKS
GREENVILLE     SUNNY     56  52  86 CALM      29.81R
6HR MIN TEMP:  53; 6HR MAX TEMP:  61;

EVERGREEN      SUNNY     53  52  96 CALM      29.80R
6HR MIN TEMP:  51; 6HR MAX TEMP:  59;

ATMORE*          N/A     59  57  94 SE3       29.81R
ANDALUSIA/OPP  SUNNY     58  54  86 CALM      29.81R
6HR MIN TEMP:  56; 6HR MAX TEMP:  62;

ANDALUSIA*       N/A     59  59 100 S3        29.81R
FLORALA APT    SUNNY     58  55  90 CALM      29.83R
6HR MIN TEMP:  55; 6HR MAX TEMP:  60;

FLORALA*         N/A     57  57 100 CALM      30.47R

$$

FLZ001>006-261300-
WESTERN FLORIDA PANHANDLE

CITY           SKY/WX    TMP DP  RH WIND       PRES   REMARKS
PENSACOLA      PTCLDY    70  58  65 S13       29.78R
6HR MIN TEMP:  66; 6HR MAX TEMP:  70;

NAS PENSACOLA  PTCLDY    71  57  61 S12       29.77R
6HR MIN TEMP:  68; 6HR MAX TEMP:  71;

MILTON         PTCLDY    58  57  97 E3        29.79R
6HR MIN TEMP:  53; 6HR MAX TEMP:  61;

WHTNG S FIELD  PTCLDY    64  60  87 E3        29.79R
6HR MIN TEMP:  58; 6HR MAX TEMP:  64;



CITY           SKY/WX    TMP DP  RH WIND       PRES   REMARKS
JAY*             N/A     59  57  94 SE6       29.80R
DUKE FIELD     MOSUNNY   56  55  94 CALM      29.80R
CRESTVIEW      MOSUNNY   54  52  93 CALM      29.82R
6HR MIN TEMP:  51; 6HR MAX TEMP:  57;

VALPARAISO     PTSUNNY   71  58  64 S9        29.80R
6HR MIN TEMP:  68; 6HR MAX TEMP:  71;

DESTIN         PTSUNNY   74  62  66 VRB6      29.80R
6HR MIN TEMP:  73; 6HR MAX TEMP:  74;


$$

MSZ076-079-261300-
INTERIOR SOUTHEAST MISSISSIPPI

CITY           SKY/WX    TMP DP  RH WIND       PRES   REMARKS
LEAKESVILLE*   NOT AVBL
AGRICOLA*        N/A     61  59  94 CALM      29.75R

$$

MARINE OBSERVATIONS

STATION/POSITION TIME  TEMP    WIND        PRES    WAVE
                       AIR SEA DIR/SP/G            HT/PER
                 (UTC) (F)     (DEG/KT/KT) (MB)    (FT/S)
PASCAGOULA       1148   71     170/ 17/ 19 1007.2R
PETIT BOIS ISLND 1148   71     170/ 16/ 19 1008.1R
GRAND BAY        1030   71     190/ 13     1008.0R
KATRINA CUT      1130   72     180/ 17     1007.5R
CEDAR POINT      1130   71     180/ 15     1006.8S
E DAUPHIN ISLAND 1100   71     170/ 14/ 16 1007.1R
MIDDLE BAY LIGHT 1130   71     170/ 19     1008.1R
USCG MOBILE BAY  1148   69 74  220/  5/  8 1008.4R
STATE DOCKS      1142   70 75              1007.6R
MEAHER PARK      1130   67     130/  8     1007.8R
FORT MORGAN      1148   71     180/ 17/ 19   N/A
12 S ORANGE BCH  1150   71 73  170/ 14/ 17 1007.8R   3/ 4
PENSACOLA BAY    1142   71 72  190/  2/  9 1008.6R
64 S DAUPHIN ISL 1150   72 74  150/ 17/ 21 1007.8R   3/ 4
67 S FORT MORGAN 1130   70     170/ 17     1008.1R

$$

SELECTED LOCATIONS ACROSS THE REGION

CITY           SKY/WX    TMP DP  RH WIND       PRES   REMARKS
NEW ORLEANS    MOCLDY    72  62  71 S13       29.70R
GULFPORT       MOCLDY    71  61  70 S13G21    29.73R
PASCAGOULA AP  PTCLDY    69  58  67 S8        29.75R
PASCAGOULA*    NOT AVBL
HATTIESBURG    PTCLDY    57  55  93 CALM      29.74R
LAUREL         CLEAR     57  55  94 CALM      29.75R
MERIDIAN       PTCLDY    58  56  93 CALM      29.77R
JACKSON        MOCLDY    61  59  93 S7        29.71R
MONTGOMERY     SUNNY     60  55  83 CALM      29.82R
TROY           SUNNY     55  54  96 CALM      29.83R
ASHFORD*         N/A     59  59 100 S3        29.81R
DOTHAN         SUNNY     59  59 100 CALM      29.85R
PANAMA CITY    SUNNY     59  57  93 CALM      29.80R

$$





USA.gov is the U.S. government's official web portal to all federal, state and local government web resources and services.